GFSMA_700_spd_015.txt.gz
Wind_Speed
25 24 26 24 23 21 22 26 31 35 35 34 36 39 39 38 39 38 38 40 41 35 34 32 30 31 31 30 31 33 33 31 30 30 31 31 29 26 26 27 28 29 29
33 30 25 23 23 24 24 30 36 35 36 37 40 41 44 44 45 45 42 41 43 44 38 34 33 33 33 34 32 33 34 35 35 33 34 34 34 31 29 28 28 29 31
26 28 16 20 23 31 27 33 37 38 39 42 45 46 45 45 43 45 46 41 39 41 45 41 38 36 38 38 37 36 37 36 37 38 37 37 37 37 33 32 30 30 31
21 18 21 24 26 31 35 37 39 44 43 43 46 48 48 45 42 42 38 30 38 41 43 47 48 42 42 43 42 42 42 42 41 41 41 41 40 40 39 35 35 32 31
14 17 22 25 28 32 37 40 41 41 45 47 47 46 44 42 40 38 39 31 39 44 45 40 48 42 48 46 47 45 48 48 47 47 45 45 44 44 43 40 37 37 34
16 21 27 28 31 35 39 42 44 44 46 46 48 49 45 39 39 38 37 26 33 39 48 51 53 53 53 54 49 47 50 46 50 52 49 49 48 47 48 46 43 39 38
21 24 29 33 37 38 42 44 46 46 45 44 46 48 49 44 34 24 28 26 33 35 38 49 55 62 59 58 55 55 46 47 49 47 49 50 50 50 49 49 47 45 41
28 32 34 35 38 40 42 44 45 45 44 44 43 47 49 46 40 25 31 36 38 41 36 41 54 58 60 57 51 49 48 49 46 45 46 49 50 51 51 52 51 47 44
33 37 38 39 40 41 43 43 44 44 42 44 42 44 45 41 46 43 42 40 35 37 39 43 51 51 54 52 49 51 54 51 48 49 50 48 48 49 49 50 53 51 48
38 38 39 40 40 41 41 41 40 44 43 44 45 42 42 41 39 43 33 31 28 33 34 38 32 40 42 40 41 42 45 50 49 45 48 50 50 49 50 50 50 53 51
42 40 40 41 42 40 40 41 42 40 43 44 44 42 42 39 36 31 32 28 26 26 26 25 26 34 31 34 37 37 37 40 43 41 44 45 48 50 48 52 51 51 53
38 39 39 39 38 40 39 40 41 41 40 37 37 40 27 24 24 25 27 28 27 26 25 26 27 28 30 33 38 42 47 43 39 38 40 42 41 42 44 44 46 51 53
38 39 38 37 37 37 39 38 38 38 31 32 37 37 22 22 25 24 24 26 28 26 28 26 27 31 33 37 40 43 44 45 41 39 40 40 41 42 43 45 46 49 54
38 39 39 39 38 38 38 39 36 24 31 28 34 24 23 22 20 23 25 25 32 31 30 32 32 32 34 35 38 43 44 42 40 38 39 39 40 41 43 44 44 50 54
37 39 39 40 41 39 40 25 21 29 30 35 27 21 22 22 24 24 25 24 30 36 37 34 37 33 35 37 37 41 39 35 36 32 33 34 35 39 39 39 40 42 46
39 40 39 39 40 40 22 24 31 27 28 22 27 23 22 26 28 31 27 28 30 35 43 36 37 35 39 40 36 37 37 35 32 31 32 30 31 35 35 34 35 40 41
40 40 40 40 38 34 33 30 27 25 25 21 29 23 26 29 30 33 30 30 32 33 39 44 40 42 45 41 39 37 36 33 31 29 30 29 31 32 32 30 32 37 42
41 41 42 44 41 36 31 24 21 19 18 26 26 26 32 32 36 33 30 30 33 34 36 45 45 45 40 39 36 33 30 29 28 23 23 21 33 30 30 29 28 32 37
41 43 45 42 36 34 28 22 24 22 22 25 28 33 34 39 40 37 39 37 37 40 43 46 44 39 37 34 31 29 28 28 25 19 22 26 27 30 29 31 28 28 32
42 43 44 41 37 29 24 21 19 22 25 27 32 34 40 39 38 38 36 36 39 41 42 39 36 36 32 30 25 25 26 21 17 17 22 21 24 26 25 26 27 25 27
43 43 40 36 31 29 27 22 23 25 26 29 32 35 36 38 37 34 34 34 37 38 35 33 33 32 31 26 27 21 23 20 15 19 21 24 13 14 25 22 25 27 26
42 39 34 29 26 23 25 26 25 24 26 29 32 33 34 35 34 35 35 34 33 32 30 30 30 30 28 25 22 18 22 22 18 15 21 11 19 19 20 12 17 24 25
39 36 30 27 21 26 23 26 25 25 27 29 31 30 29 30 32 31 33 33 31 28 29 30 30 29 29 26 23 21 22 21 21 18 18 11 18 9 12 16 24 23 20
36 33 31 29 24 28 24 25 25 26 28 29 29 27 28 28 31 29 30 30 27 25 27 27 29 30 26 24 24 24 26 26 24 25 21 23 16 21 20 20 28 23 25
33 31 28 27 24 28 24 25 25 27 28 27 26 26 27 26 29 29 29 29 25 23 24 28 29 25 19 18 17 17 17 19 19 14 13 21 20 20 21 21 23 23 23
31 30 28 27 25 26 25 24 25 26 26 26 25 27 29 26 25 25 27 27 25 23 24 26 25 16 15 14 12 12 11 14 15 11 8 16 16 17 20 20 19 20 25

GFSMA_700_spd_018.txt.gz
Wind_Speed
22 26 23 24 27 41 30 29 30 32 29 32 33 37 40 40 40 40 42 38 35 37 37 34 31 30 29 27 27 27 27 28 28 28 27 29 28 24 26 26 25 24 25
25 23 26 20 17 21 23 28 28 29 32 34 37 40 42 43 43 42 44 46 42 39 40 39 33 32 34 33 32 31 31 31 31 31 32 31 32 30 27 29 29 27 26
22 21 21 16 17 19 24 27 30 33 37 38 39 40 41 44 45 42 39 39 40 38 41 43 43 39 34 35 36 36 37 37 35 35 36 36 35 35 34 31 31 31 28
19 16 16 16 17 22 28 32 35 37 39 42 43 44 46 43 38 38 37 34 32 39 43 46 47 43 42 39 38 37 40 42 40 41 42 40 40 39 39 36 35 34 34
13 15 16 19 23 27 32 37 38 40 42 43 44 43 46 46 42 36 32 33 28 31 39 40 48 50 51 49 45 38 41 43 44 48 48 45 45 44 44 43 40 38 37
13 18 23 25 28 32 36 38 39 41 42 43 44 43 44 44 42 38 32 26 24 31 41 45 48 52 54 60 62 60 55 48 46 50 52 49 48 49 48 47 46 43 42
17 20 25 31 34 36 38 40 41 42 41 42 43 42 42 43 42 35 40 37 35 36 37 41 48 50 54 61 62 59 56 58 54 45 41 44 48 48 50 50 51 48 46
25 32 35 34 38 38 38 39 40 42 41 40 41 43 44 45 44 44 39 34 36 39 39 41 45 51 51 54 58 56 48 51 49 47 45 42 41 45 48 50 51 52 49
28 33 36 39 36 35 37 38 38 40 41 40 39 42 44 47 49 47 46 43 43 46 45 45 48 48 47 51 50 44 42 42 45 41 41 43 43 43 45 46 48 52 51
32 35 36 37 37 38 37 38 38 38 39 41 41 42 44 46 49 50 47 46 40 37 39 40 41 41 42 45 38 36 37 37 38 40 36 37 38 40 40 44 47 48 52
35 37 35 34 36 37 38 37 37 38 37 39 41 44 44 42 40 42 49 42 39 33 31 29 34 36 36 37 37 35 38 42 44 43 39 37 39 37 37 39 42 49 51
33 34 33 35 37 37 37 38 38 38 40 41 41 37 36 36 38 40 37 37 37 31 27 27 32 33 35 35 35 39 42 45 47 46 43 37 39 41 38 37 38 41 50
36 34 34 36 38 38 37 37 39 41 37 36 32 34 37 34 34 28 30 30 32 34 33 32 33 34 35 36 39 40 42 43 44 44 42 39 37 38 38 37 37 39 40
35 35 35 38 39 40 38 41 41 39 34 27 30 31 35 32 19 26 28 31 36 35 36 35 33 33 37 39 41 43 43 44 43 39 35 33 35 34 33 36 37 37 39
33 35 37 38 37 41 42 42 38 33 28 29 31 31 20 25 33 28 29 30 34 41 41 36 37 36 38 42 44 43 44 44 40 35 33 30 30 30 31 33 35 36 36
34 36 38 38 38 38 40 37 35 32 29 28 32 29 27 28 36 28 34 37 38 37 42 38 37 40 44 46 45 44 42 38 38 35 33 31 31 29 30 30 32 33 35
36 38 38 38 39 39 39 34 31 28 25 24 24 24 29 31 31 33 38 39 37 38 42 42 40 43 45 44 44 40 37 35 33 31 28 27 28 28 30 29 30 30 32
37 37 37 40 41 38 35 34 31 24 21 21 22 26 33 36 35 41 40 43 39 39 40 44 42 43 44 43 38 36 32 31 31 30 26 28 24 23 23 26 29 28 29
36 37 38 40 41 34 32 28 26 21 22 25 28 30 33 36 41 42 41 39 39 38 38 41 43 41 40 36 35 33 30 29 27 26 25 20 19 25 23 25 27 27 28
37 38 39 39 39 34 32 30 20 23 24 27 28 29 32 37 37 37 37 37 36 37 38 39 39 37 34 32 31 32 31 27 26 20 22 21 21 19 20 22 25 27 28
36 38 39 37 37 33 28 23 24 26 29 28 29 30 31 34 35 34 32 32 33 35 36 36 34 32 30 30 29 28 26 23 20 22 20 20 24 13 12 11 18 22 25
36 38 38 34 32 30 24 26 29 28 28 29 29 30 31 32 33 32 32 34 34 35 35 33 30 29 29 30 31 30 28 25 23 19 22 18 17 17 13 15 16 15 23
34 35 35 33 32 33 27 24 25 27 28 29 30 30 29 29 29 29 31 31 31 32 31 31 31 30 32 33 32 28 27 27 27 23 20 23 15 15 17 17 7 23 13
35 33 33 31 31 32 30 25 26 29 28 29 29 28 27 28 28 30 30 29 28 29 28 27 28 28 29 26 24 23 22 20 18 22 21 23 18 16 16 21 19 21 20
36 35 32 30 29 31 30 27 28 29 29 29 29 28 26 27 28 29 27 26 26 27 26 25 26 29 24 19 17 17 16 17 15 12 11 16 14 19 18 20 20 24 18
35 32 30 28 29 30 28 28 27 28 28 28 27 26 27 28 27 26 25 25 25 26 26 22 23 23 16 15 14 14 15 16 16 10 8 10 9 10 14 18 22 21 19

GFSMA_700_spd_021.txt.gz
Wind_Speed
18 17 18 19 21 20 20 22 22 24 26 28 30 32 34 34 36 38 40 40 39 39 36 37 34 29 26 25 25 26 27 28 28 27 27 27 27 26 24 25 23 20 21
23 26 24 22 19 16 18 20 21 25 28 31 32 33 34 37 38 36 37 39 40 40 39 38 38 37 32 30 29 29 29 31 32 31 31 31 30 30 30 28 27 26 23
25 22 20 21 18 20 21 23 26 29 34 37 37 37 39 39 37 36 35 36 37 36 38 40 42 42 42 39 33 30 32 35 34 34 36 36 35 35 34 34 32 31 29
18 18 18 17 18 22 25 28 31 33 36 39 40 38 38 39 40 37 35 34 36 36 37 39 43 45 47 48 46 41 38 39 37 38 40 40 38 39 39 38 38 37 35
15 15 14 15 19 23 26 28 31 35 36 35 35 35 35 37 36 35 35 35 34 34 37 41 47 49 51 54 55 55 53 46 45 45 48 48 43 42 44 45 44 43 41
16 14 16 20 25 27 29 33 35 34 34 33 33 33 34 36 37 37 38 36 35 37 38 44 47 51 52 54 57 58 58 57 58 58 56 55 55 51 47 49 49 48 47
16 19 18 22 26 28 32 33 32 33 33 33 34 34 33 33 36 38 39 39 37 37 38 42 48 53 56 58 58 58 59 59 63 63 61 51 48 52 54 50 51 52 51
19 22 25 30 30 31 31 30 32 34 34 35 35 36 38 38 38 41 41 38 39 37 40 44 49 52 52 53 53 56 60 62 60 52 43 40 35 36 40 44 48 51 53
25 29 36 33 33 32 30 30 31 33 35 35 36 39 43 45 45 45 43 43 41 41 41 44 50 51 51 50 51 55 54 52 39 33 30 31 32 31 34 38 42 48 51
29 35 41 36 38 34 32 33 32 33 35 36 37 39 41 43 45 45 45 45 43 40 38 35 40 43 45 47 48 48 46 41 38 34 33 31 33 36 36 33 38 43 50
33 39 42 37 33 32 33 34 33 33 35 37 38 39 39 40 38 39 44 42 42 39 34 32 31 36 42 45 44 43 42 42 40 38 38 39 40 40 38 38 36 38 43
39 40 37 35 35 34 33 32 34 36 37 39 38 36 38 39 39 40 38 36 36 36 31 29 30 28 32 37 38 39 41 41 41 42 40 39 40 42 40 39 40 38 41
39 36 35 35 35 34 33 33 35 37 37 38 38 38 37 36 36 35 35 34 38 34 32 31 31 33 33 34 37 40 40 38 39 41 42 41 39 38 39 39 37 37 39
37 35 36 35 35 36 36 34 35 37 36 36 36 35 35 35 33 31 28 32 40 34 37 37 37 35 33 35 37 37 38 40 41 42 44 42 36 35 35 35 33 34 37
34 35 36 35 34 34 36 38 37 36 34 35 33 33 33 31 31 36 33 33 32 39 45 43 39 37 38 38 38 38 39 41 42 42 43 37 36 35 34 32 30 31 34
33 34 34 35 33 33 36 37 36 34 33 31 31 35 31 31 28 29 37 38 38 40 47 48 41 40 40 40 39 41 42 41 40 37 37 36 33 33 32 32 31 30 31
35 33 34 34 34 33 35 35 34 30 31 30 31 28 25 29 30 32 38 42 40 46 51 48 41 39 40 41 40 40 40 37 35 34 32 32 32 31 29 29 31 31 30
35 33 33 34 36 35 34 33 31 32 28 27 25 26 28 29 32 37 39 41 44 44 44 44 40 39 39 40 38 38 33 31 33 31 31 30 30 30 30 29 27 29 30
39 35 34 31 35 34 31 30 31 27 25 25 24 26 28 31 34 36 37 38 38 36 36 39 40 38 38 36 33 32 32 31 31 31 31 31 28 26 22 26 27 27 26
40 30 30 32 34 36 35 31 30 27 26 28 30 31 30 31 33 36 36 33 33 33 34 36 36 35 34 30 29 32 32 30 30 27 27 28 25 21 20 20 23 23 22
29 27 30 30 34 35 34 28 29 29 28 29 29 30 31 33 35 35 31 29 32 33 34 33 32 32 29 29 29 30 33 32 22 25 26 25 24 23 22 15 17 17 17
23 25 27 31 34 35 35 28 28 28 27 29 30 31 31 33 33 30 28 30 32 34 32 33 33 31 27 28 30 33 28 24 24 23 25 20 23 21 18 17 17 14 13
24 24 29 32 34 36 33 29 27 28 28 29 30 31 32 33 29 27 29 30 29 28 30 31 31 29 28 29 32 26 23 24 24 19 19 18 17 21 20 15 23 9 16
23 27 31 34 35 33 29 28 28 29 29 30 30 32 32 30 25 27 28 26 26 26 27 29 30 29 28 29 24 21 20 20 18 15 18 19 14 19 20 21 18 18 15
25 30 35 34 31 29 28 27 29 30 29 30 31 32 30 27 24 27 25 23 23 24 25 26 27 26 27 23 19 18 17 15 15 14 13 19 11 13 19 20 18 21 20
28 35 33 31 28 26 26 27 28 29 29 29 30 31 27 23 25 25 24 23 23 24 23 23 23 22 23 17 16 15 10 12 15 15 11 16 9 10 8 17 22 24 21

GFSMA_700_spd_024.txt.gz
Wind_Speed
16 18 18 21 23 23 22 19 19 19 19 23 27 31 33 34 34 33 32 33 34 33 33 34 32 31 30 26 26 28 29 30 30 30 30 30 30 29 27 26 27 26 25
23 23 24 24 20 21 20 18 19 22 25 28 30 33 34 34 33 34 33 33 33 33 33 34 35 35 36 36 30 27 27 31 33 34 35 35 33 33 32 30 29 29 29
17 17 19 19 19 18 18 21 24 27 29 31 33 35 37 36 35 34 34 34 33 33 35 37 38 39 40 42 41 40 38 32 33 35 38 38 38 37 36 35 35 33 33
14 16 17 18 18 18 21 24 26 28 31 34 35 33 33 34 34 33 32 32 32 34 35 39 41 45 47 49 49 49 48 49 47 42 43 40 41 41 40 39 39 40 38
12 15 17 18 19 21 27 31 30 29 32 32 31 31 32 33 33 32 31 32 33 34 36 38 41 45 49 51 53 55 56 56 55 54 55 50 47 47 45 43 44 44 45
13 16 18 21 23 23 26 27 30 32 31 30 30 30 30 31 32 32 33 34 36 38 39 41 45 49 51 53 56 56 57 58 61 58 56 56 55 56 56 55 53 51 51
17 17 16 21 25 32 33 30 32 32 30 31 31 30 30 30 31 34 34 35 36 36 37 41 45 48 51 53 56 59 61 57 59 58 59 60 63 58 56 58 59 57 55
18 20 21 24 28 28 29 36 33 32 32 32 32 32 32 33 34 36 37 39 37 36 37 40 43 48 53 57 58 58 57 57 58 57 55 51 46 37 36 38 42 49 53
15 20 22 28 31 32 30 30 32 33 33 35 35 34 37 38 40 40 42 41 40 36 35 35 39 44 50 54 53 52 50 50 50 49 37 30 32 34 34 33 35 36 41
20 23 28 32 34 33 34 33 35 35 35 35 36 37 38 40 41 43 42 43 41 40 37 34 34 36 38 42 45 48 50 50 49 47 39 33 34 36 36 34 33 36 37
24 26 32 36 34 35 36 36 37 38 37 36 38 39 38 39 39 41 43 42 41 36 35 32 29 26 28 32 36 39 44 47 48 46 42 40 37 36 38 40 36 37 38
28 29 32 35 36 36 35 36 38 39 38 39 40 40 40 40 39 40 42 43 40 33 30 31 25 28 32 34 36 38 40 43 44 43 42 42 41 39 39 42 43 40 40
32 34 36 35 38 39 38 39 39 40 40 39 38 38 38 38 38 39 40 40 38 34 35 35 32 33 38 37 35 34 35 38 40 41 42 43 42 42 41 42 43 43 41
37 38 46 39 40 39 42 41 40 40 40 39 38 37 35 34 35 37 36 37 37 36 39 41 35 39 42 43 40 38 38 38 39 41 43 44 45 43 42 42 41 40 38
41 42 43 43 37 39 40 40 40 37 35 34 34 34 32 30 29 29 31 30 32 39 41 43 40 43 47 46 43 42 41 40 41 41 42 44 44 43 40 38 37 36 34
42 49 45 43 38 41 38 42 38 36 34 33 33 31 31 29 25 29 28 30 34 37 45 45 47 47 46 44 42 41 41 42 42 43 42 41 40 39 37 35 34 34 33
49 40 51 42 42 41 39 32 33 31 31 31 29 30 28 28 28 28 30 33 37 42 46 46 46 44 43 42 41 41 41 40 39 36 34 34 35 36 36 34 34 33 33
50 44 45 42 41 35 29 29 29 31 33 32 29 28 28 29 30 31 32 35 38 40 41 44 43 40 40 41 41 39 35 33 32 32 33 33 33 34 34 34 34 33 33
47 50 46 44 39 31 27 30 32 32 32 30 29 30 30 30 29 31 34 36 37 36 38 41 41 40 39 36 35 34 31 29 30 33 34 35 35 33 32 31 29 29 32
50 50 47 41 37 30 32 29 29 29 30 30 31 31 32 31 31 33 34 35 35 36 37 38 39 37 33 31 31 31 29 29 31 32 31 29 28 27 26 26 25 25 23
52 51 43 39 34 26 28 30 30 28 29 31 30 30 30 31 32 33 34 33 34 35 37 37 33 31 31 30 28 28 30 33 24 25 25 26 29 26 24 26 22 21 19
54 40 39 34 24 25 31 32 31 30 30 31 32 31 32 32 32 32 33 32 34 36 35 33 31 32 32 32 29 29 31 26 22 23 25 19 25 21 22 23 17 18 15
41 38 36 22 24 29 33 33 31 30 30 32 32 32 32 32 32 32 31 31 33 32 33 32 30 31 32 31 29 29 23 24 22 20 24 18 18 18 21 21 19 19 22
39 32 20 22 28 33 33 31 30 30 30 31 32 32 31 31 32 30 29 30 29 29 28 28 29 28 30 29 29 25 21 19 15 13 21 22 17 15 16 19 20 19 23
31 20 22 28 34 31 29 28 29 29 30 31 31 31 31 31 30 28 28 27 25 25 26 27 27 27 28 27 27 23 20 18 14 11 13 23 19 18 15 16 21 24 17
20 22 27 32 31 28 27 27 28 29 30 31 31 30 30 30 29 27 26 24 23 23 23 24 24 24 26 26 24 21 19 16 15 12 16 22 21 20 12 13 15 20 23

GFSMA_700_spd_030.txt.gz
Wind_Speed
9 10 14 16 14 12 11 12 13 16 20 23 28 31 33 33 33 33 32 32 31 30 30 29 25 21 20 21 22 21 18 19 20 24 23 24 24 26 29 30 30 30 31
9 10 9 8 9 10 11 12 15 19 23 27 29 31 34 36 37 36 36 35 34 33 31 31 32 33 30 26 26 27 27 25 24 25 27 28 29 31 31 31 32 33 33
9 9 8 8 9 10 12 15 19 22 25 28 31 34 37 38 39 39 38 37 37 36 34 33 33 35 36 36 35 34 33 32 33 34 35 32 32 35 37 38 38 37 37
10 10 9 8 9 12 15 20 24 29 32 33 38 39 37 40 41 40 40 40 40 38 38 37 38 38 39 40 41 40 39 41 42 44 46 48 46 42 40 41 43 45 44
11 11 10 12 13 15 19 24 29 32 34 36 38 37 37 39 39 40 41 41 41 41 41 42 43 44 45 45 44 44 45 46 48 50 52 54 56 55 53 51 49 50 52
11 12 13 14 15 19 24 29 31 33 34 33 35 36 37 38 38 39 40 41 42 42 41 43 45 46 47 47 47 47 48 50 52 54 57 59 60 60 61 61 60 61 60
12 12 14 17 19 23 26 28 31 33 33 35 36 36 37 38 38 39 40 41 42 43 44 44 44 45 46 48 49 49 49 49 50 52 52 56 57 60 63 64 61 64 67
13 15 18 20 22 25 28 28 32 32 29 35 36 36 37 36 39 41 42 44 45 46 47 45 45 45 46 46 47 47 48 49 50 50 51 51 53 55 55 55 55 53 50
16 19 21 23 24 27 31 34 33 37 37 39 37 37 38 40 41 41 44 46 47 48 48 47 45 43 43 44 44 44 45 45 44 45 45 44 44 45 45 46 47 49 47
21 22 23 27 29 33 37 41 40 39 40 43 38 39 39 42 43 47 47 47 47 47 45 43 42 41 41 39 40 42 43 42 41 42 43 44 44 44 44 43 43 44 43
24 25 27 31 37 41 42 45 41 44 37 42 41 39 42 43 44 48 47 45 45 42 40 38 37 36 36 35 36 38 40 40 41 43 44 45 46 45 43 41 41 40 39
27 27 35 39 42 48 43 40 39 43 43 40 40 41 44 44 44 43 44 43 43 39 38 36 33 34 32 33 35 38 40 42 42 43 44 45 46 46 44 42 41 39 38
30 34 37 44 45 48 49 41 46 44 44 44 43 43 42 41 41 39 38 38 39 39 37 33 31 29 30 35 36 39 41 43 44 43 43 44 45 44 43 42 42 41 41
37 37 41 43 43 47 45 46 43 44 43 42 41 41 41 39 36 36 38 37 37 37 37 35 33 31 33 36 38 41 42 42 42 41 41 41 43 44 43 42 42 42 41
32 35 39 42 42 45 43 44 45 45 41 42 41 41 39 38 41 35 34 35 36 37 38 35 33 34 37 39 40 40 41 41 40 42 42 42 43 44 43 42 42 41 41
28 33 36 41 43 45 45 47 47 42 42 42 41 39 39 34 33 33 33 33 33 33 36 35 36 39 41 41 41 41 41 42 43 42 40 38 38 39 38 36 34 33 33
29 33 36 39 41 43 44 44 39 39 40 41 39 36 32 34 33 33 32 31 31 32 35 35 36 38 39 40 40 41 42 40 38 37 37 37 35 35 34 33 32 33 32
31 34 36 39 42 45 45 42 39 39 40 35 33 33 34 34 32 31 31 32 32 34 36 37 37 38 38 38 40 39 37 37 37 37 37 35 32 32 34 35 35 34 35
34 36 41 43 46 50 49 39 38 40 33 30 33 33 35 34 33 33 33 33 34 34 36 38 38 37 37 37 37 36 34 34 34 35 34 32 32 32 32 31 30 29 29
39 42 48 48 52 56 45 39 40 34 28 31 33 35 33 32 33 33 33 34 34 35 36 37 36 36 37 35 36 37 33 33 31 31 30 28 27 28 28 29 30 29 29
42 47 48 55 60 52 38 40 37 28 30 34 36 33 33 32 32 33 33 33 34 34 36 35 34 36 35 35 34 34 35 32 27 29 25 23 24 22 24 25 26 24 23
45 51 59 61 56 39 40 39 29 29 33 36 35 33 33 33 33 33 34 34 33 34 35 34 33 34 33 34 33 33 33 31 27 24 22 14 22 19 21 22 23 21 19
54 52 53 56 40 39 42 30 28 32 35 35 34 33 33 32 33 34 34 33 31 33 33 32 32 32 32 33 33 32 31 30 26 22 24 16 18 16 22 24 23 21 18
60 56 45 40 39 41 33 28 31 34 35 34 34 34 34 33 33 34 34 31 31 31 31 30 30 29 29 30 32 32 31 28 24 20 23 21 17 17 19 22 24 20 19
45 40 38 40 39 34 30 31 34 35 35 34 34 35 34 33 33 34 33 30 30 29 29 28 28 26 27 29 31 32 30 28 23 18 16 24 19 18 19 19 21 21 18
39 38 39 36 34 33 33 34 36 36 36 36 36 36 35 34 35 34 33 30 29 28 28 27 26 24 25 27 29 30 30 28 26 19 16 19 13 21 19 23 19 21 17

GFSMA_700_spd_036.txt.gz
Wind_Speed
12 10 9 10 11 11 9 7 6 7 10 15 19 22 23 24 24 24 25 25 26 27 27 29 28 26 25 25 26 26 27 28 28 27 27 29 29 29 28 27 26 26 27
11 10 10 11 11 9 7 6 7 10 14 18 21 21 22 22 23 24 25 26 26 26 26 27 30 31 29 28 29 29 31 33 34 35 34 33 34 34 33 31 29 29 29
12 10 10 10 9 8 7 7 9 12 16 19 21 22 20 19 24 26 27 28 30 28 29 29 31 32 35 35 34 35 36 37 39 40 40 41 41 40 41 40 38 38 35
10 9 8 9 9 7 8 10 12 15 18 20 23 24 23 22 27 29 30 30 28 32 32 32 32 34 36 38 40 40 41 42 43 43 45 46 47 46 47 47 47 46 46
10 9 9 9 9 10 11 13 16 18 20 22 25 26 30 33 31 34 34 32 30 30 35 35 35 37 39 41 43 45 46 47 47 47 48 49 49 51 52 53 53 52 52
10 10 9 9 11 12 14 16 18 20 23 27 31 35 37 37 34 35 34 34 35 35 35 35 38 42 42 44 46 47 48 50 51 52 52 51 51 51 52 53 56 56 56
10 10 9 11 13 15 17 18 20 23 26 29 35 44 37 34 32 35 34 33 32 34 34 35 37 41 47 47 48 47 48 49 50 50 51 51 51 50 50 50 50 50 50
15 14 16 15 17 17 20 22 24 27 31 32 35 32 37 39 39 35 32 33 33 36 38 38 41 44 44 44 49 49 49 49 50 50 50 50 49 48 46 45 45 46 47
19 20 20 20 19 21 23 25 26 29 34 39 35 31 30 32 36 40 33 33 33 35 38 41 42 42 43 43 46 48 51 49 50 49 49 49 48 46 45 44 43 43 43
21 22 24 23 22 26 25 25 28 32 35 36 38 32 27 26 29 31 41 38 35 37 39 38 39 41 41 40 42 44 45 46 46 46 46 46 45 45 44 45 44 44 44
24 23 24 26 26 27 25 26 30 34 36 35 34 34 32 31 30 31 30 34 41 40 39 37 35 35 38 39 39 43 43 42 43 44 44 45 45 44 44 45 45 45 45
28 27 25 26 27 27 28 30 33 35 37 34 35 33 31 31 32 32 35 36 36 36 34 33 34 35 35 37 38 40 40 42 42 42 44 45 45 45 45 45 44 44 44
27 27 25 26 25 27 29 29 35 32 35 39 36 33 34 33 32 34 36 34 34 32 33 34 33 32 33 35 36 40 38 42 41 41 42 44 44 45 45 46 46 45 45
26 24 24 24 25 27 28 34 35 35 38 39 38 36 37 36 34 35 33 33 31 30 25 23 28 32 34 34 35 37 37 40 41 41 42 43 44 45 45 46 45 45 44
22 23 24 23 28 27 32 33 38 36 39 41 38 40 37 32 35 34 32 31 31 33 29 22 24 28 36 36 36 38 37 39 40 41 42 43 44 42 41 41 40 39 39
23 25 29 26 30 28 32 35 39 40 41 38 44 41 31 35 34 31 30 31 33 32 33 28 24 30 35 33 37 37 37 38 39 41 42 42 42 41 39 38 37 36 36
28 30 29 29 32 32 29 38 39 42 49 46 37 31 35 34 31 30 30 32 32 32 32 31 31 34 38 35 35 36 36 37 39 40 40 41 41 40 38 35 34 32 32
27 29 29 33 32 32 36 34 40 46 44 45 33 36 33 32 31 30 33 33 32 30 31 34 34 34 35 37 36 36 35 36 36 36 38 39 40 37 35 32 31 28 28
26 28 31 33 35 37 42 49 44 48 47 33 38 35 33 32 32 32 33 33 30 30 32 35 35 35 35 35 37 35 35 34 32 35 37 39 38 34 32 29 27 25 25
32 31 34 39 36 41 44 46 54 39 36 38 35 36 32 32 32 33 34 33 31 32 32 36 36 35 34 34 35 34 33 31 30 33 35 39 37 31 28 25 24 24 24
34 32 39 34 40 48 47 51 41 36 36 36 35 33 33 32 33 35 35 34 32 34 35 35 35 34 34 33 34 33 33 29 29 32 34 36 35 30 25 25 24 25 24
34 36 36 46 43 46 36 31 34 35 36 35 33 33 33 33 35 35 37 37 37 38 37 36 35 34 33 33 34 33 32 28 29 30 32 34 31 27 23 21 22 24 24
31 34 37 36 37 30 29 30 33 35 35 33 33 34 34 36 38 37 39 38 39 40 37 34 36 34 33 32 33 31 30 28 27 28 30 32 30 27 22 20 22 23 25
30 33 36 39 37 29 29 31 32 34 35 34 35 36 37 39 39 42 39 41 40 40 38 36 35 33 32 32 31 30 29 27 26 28 29 32 27 29 23 19 18 22 26
34 35 33 33 31 29 28 30 34 36 37 37 38 39 40 41 41 41 40 41 40 40 39 37 36 35 32 31 30 30 28 28 26 26 28 31 28 28 26 19 17 21 26
27 28 27 27 28 29 30 31 34 38 40 40 42 43 43 43 41 42 41 41 42 39 37 39 35 35 32 31 29 28 28 27 26 25 27 30 29 28 27 18 18 20 23

GFSMA_700_spd_039.txt.gz
Wind_Speed
12 11 10 10 9 11 11 8 7 5 5 7 12 14 15 15 15 18 21 22 24 26 26 28 27 24 23 25 25 26 26 25 25 26 27 28 30 30 30 31 30 30 29
14 13 12 11 12 12 10 9 8 7 8 10 12 15 17 17 16 20 27 27 27 28 27 27 29 30 28 27 27 28 29 30 31 32 33 33 33 33 35 36 35 33 33
14 13 13 13 13 13 11 10 9 9 10 11 14 16 18 19 24 26 26 30 32 27 26 27 29 32 34 32 30 32 32 34 35 36 37 39 39 38 39 39 39 42 42
14 13 14 14 11 12 11 11 11 12 13 16 18 21 24 28 31 31 29 29 27 36 29 28 31 32 33 33 35 37 38 40 41 42 44 44 45 46 46 47 46 45 45
15 15 14 12 11 12 12 13 13 14 17 20 23 25 27 33 34 30 30 28 29 26 33 30 30 31 32 33 36 40 42 45 45 46 48 49 50 50 50 51 52 52 53
16 15 15 12 12 13 14 14 14 16 20 22 26 31 32 34 31 33 31 32 31 26 26 31 33 34 34 35 38 41 42 43 44 46 48 48 48 48 48 49 50 50 51
16 15 15 13 15 16 16 15 17 20 22 24 27 33 43 43 34 32 31 32 31 29 30 28 27 32 39 42 44 40 40 42 44 47 49 50 49 49 48 49 49 50 50
16 15 18 17 18 19 19 20 20 23 27 26 28 33 36 37 43 38 29 31 31 31 33 31 32 35 36 37 44 46 45 41 43 46 47 49 50 50 49 49 48 47 46
19 20 21 22 23 24 23 24 24 26 29 32 33 36 36 28 27 35 40 32 33 31 29 33 36 39 40 39 38 41 42 44 45 46 47 48 48 49 49 49 49 48 47
21 22 26 27 26 27 28 27 28 29 31 33 36 35 30 30 28 26 33 40 39 35 37 34 35 39 42 40 38 40 41 42 43 43 44 45 47 48 49 49 47 46 46
26 28 30 30 26 29 31 29 30 30 31 34 36 35 37 35 34 31 27 25 33 38 43 41 42 42 39 38 40 42 40 41 42 42 41 43 45 46 47 46 45 44 44
25 27 31 30 31 31 31 30 30 30 34 30 34 35 35 34 34 33 33 32 34 35 36 42 42 42 40 39 38 42 40 39 40 41 40 41 44 44 45 44 45 45 45
30 30 28 30 30 30 30 29 29 33 35 35 36 36 36 33 34 34 35 34 36 37 36 39 43 42 39 38 37 41 40 38 38 40 38 40 42 42 44 45 46 46 47
32 31 29 30 27 27 28 26 31 32 37 39 38 38 40 37 38 38 33 34 37 37 35 36 28 32 37 36 38 39 39 39 39 38 39 40 41 43 44 44 45 44 44
30 30 31 28 27 28 25 30 32 36 39 39 44 41 43 43 39 31 33 35 36 38 37 31 28 27 32 35 36 40 39 39 39 38 39 39 40 41 42 42 43 42 41
28 29 27 29 33 33 37 28 34 41 37 37 40 45 45 37 30 34 34 34 36 39 39 32 29 27 32 34 37 41 38 38 38 38 39 38 36 36 39 40 40 39 38
29 29 30 31 36 36 30 33 38 43 41 44 49 49 39 34 37 36 35 34 38 36 36 33 27 27 33 36 35 39 40 39 38 37 38 35 33 35 39 40 38 37 34
28 31 32 33 33 37 36 38 40 43 49 42 51 39 35 38 36 36 34 37 35 35 33 33 30 31 33 34 36 37 38 37 36 35 35 32 33 35 37 39 35 32 30
31 32 33 35 36 36 38 42 44 51 51 40 41 39 38 35 36 34 36 35 34 31 31 33 34 32 35 34 34 36 37 38 36 35 35 32 35 36 37 35 32 29 26
33 34 36 38 38 33 41 46 48 47 41 36 35 38 37 35 35 34 35 34 34 35 36 34 34 34 33 33 36 36 37 35 38 35 33 31 33 37 39 37 30 25 24
37 37 36 33 37 43 42 40 34 41 41 38 36 37 37 35 35 34 34 34 35 38 38 36 40 38 34 33 34 34 37 37 36 35 33 29 32 35 36 34 29 28 26
34 32 34 33 36 38 35 38 38 39 39 37 35 36 35 37 36 35 35 36 38 40 41 40 43 42 38 37 38 37 37 38 38 32 33 29 32 32 34 34 27 28 27
33 34 34 36 36 38 39 38 38 37 38 35 35 36 37 36 36 38 41 45 43 41 43 43 44 43 41 39 40 40 37 37 37 34 33 31 30 31 32 33 29 26 26
36 37 36 36 35 36 35 34 33 34 35 36 37 38 39 39 40 41 43 44 47 47 46 45 44 42 40 40 40 38 37 36 35 33 31 31 29 30 31 34 28 24 23
33 32 31 30 29 27 27 30 33 35 36 36 37 39 41 43 43 44 46 49 49 48 46 46 43 42 39 37 35 35 36 35 34 31 30 30 29 31 31 34 28 24 24
27 25 25 26 27 28 32 31 32 35 37 40 41 42 44 46 48 50 52 50 51 47 44 44 45 44 42 38 38 38 34 34 30 29 28 29 29 31 32 31 31 23 23

GFSMA_700_spd_042.txt.gz
Wind_Speed
18 11 9 4 7 7 8 6 4 2 4 5 7 7 10 12 13 15 18 21 23 24 26 25 21 19 21 23 24 24 24 25 25 25 25 24 26 27 28 29 29 30 31
16 18 9 8 8 9 10 6 5 5 6 6 8 9 11 13 17 26 26 24 24 26 25 28 28 27 25 25 24 24 25 26 27 28 30 30 30 30 31 31 31 34 34
20 14 11 10 11 11 11 8 8 8 8 9 10 11 13 16 21 26 29 29 27 26 26 28 27 28 29 27 25 27 28 30 32 34 36 37 38 39 40 40 39 38 38
14 14 13 12 12 10 11 11 12 10 11 13 13 14 17 19 23 28 24 27 34 32 27 24 24 26 27 29 29 30 32 34 37 40 40 39 39 41 43 45 47 50 50
14 15 15 13 11 13 14 13 14 13 13 15 16 18 21 24 27 29 27 25 23 32 32 27 25 25 26 26 29 31 36 38 40 40 39 39 40 42 44 47 50 53 55
17 16 14 15 13 15 14 15 16 16 17 17 20 27 27 27 30 33 31 30 25 21 28 30 30 29 27 29 32 34 36 36 37 38 39 40 43 45 46 48 49 52 53
16 16 16 13 15 18 16 18 17 18 20 19 24 26 33 36 37 37 34 30 30 27 26 28 30 31 32 34 35 38 37 35 35 37 39 42 44 47 49 51 52 52 50
15 15 17 14 17 20 20 18 21 22 24 24 25 28 28 36 39 39 37 32 30 30 31 31 27 28 33 35 37 42 43 39 35 35 39 41 44 47 49 51 51 51 51
19 18 20 20 21 23 24 24 25 26 28 31 26 28 32 33 38 38 37 38 37 32 29 29 34 35 33 34 38 42 42 41 40 39 39 41 44 46 48 49 50 50 50
20 21 22 24 25 26 28 28 29 30 29 31 32 30 31 34 35 31 35 38 39 39 38 37 35 34 36 40 42 45 43 42 40 40 40 43 45 46 47 47 48 48 49
19 23 26 25 27 30 35 30 30 32 32 30 32 34 43 34 34 32 30 28 37 38 40 45 45 43 40 40 43 46 47 42 37 39 41 42 44 45 46 46 46 46 45
24 26 27 27 27 29 28 29 32 31 33 30 30 37 36 42 37 38 39 36 31 31 33 37 41 44 44 45 47 48 46 40 36 39 40 41 42 43 44 44 43 43 44
24 23 28 31 31 31 29 29 34 32 28 29 36 34 40 43 37 40 39 38 40 34 32 34 39 41 43 49 49 49 45 39 37 39 39 39 41 41 41 42 41 42 43
27 30 28 32 33 31 34 33 31 29 30 29 37 43 41 42 44 41 42 39 36 32 34 33 33 38 43 43 47 48 49 41 38 38 40 40 40 41 40 41 39 39 41
23 22 26 27 31 28 34 33 31 36 32 32 38 41 49 42 37 42 40 33 35 38 38 34 36 36 36 40 45 47 48 44 40 38 38 39 39 38 37 37 34 37 41
19 22 26 26 28 29 31 34 35 35 42 33 40 45 50 51 39 37 35 36 39 39 41 38 39 37 37 37 39 42 45 45 40 36 37 38 38 36 36 33 35 38 42
23 25 25 27 30 32 33 34 37 38 39 37 44 49 49 45 40 39 37 38 38 37 39 40 38 36 37 37 38 42 44 44 40 36 36 37 37 36 35 32 35 38 41
27 28 28 29 31 33 34 36 36 41 42 42 48 49 37 38 42 38 37 37 38 37 39 41 39 38 36 37 39 41 41 43 41 38 36 34 35 34 34 31 34 36 38
29 31 33 33 33 36 36 40 38 44 38 45 52 41 43 46 40 38 37 39 39 39 38 40 40 37 37 37 40 44 44 44 43 41 39 37 37 38 35 33 34 35 35
31 34 36 37 37 37 37 39 36 38 40 38 40 42 44 43 38 38 39 37 37 37 36 38 40 42 42 42 43 45 48 46 45 45 41 38 37 38 33 33 34 35 34
35 36 36 38 38 35 33 35 34 34 42 43 40 39 39 37 37 36 37 36 35 37 38 41 44 47 47 45 47 46 47 50 46 46 42 39 37 35 32 33 33 33 33
33 35 35 37 31 34 36 38 39 41 42 41 38 36 35 34 34 35 36 36 37 39 42 44 46 47 48 49 48 50 54 53 48 45 42 38 36 36 33 32 31 31 32
33 33 33 35 34 36 35 37 36 37 39 36 33 33 34 33 34 36 38 40 42 44 46 49 51 49 47 44 47 51 52 50 45 42 39 38 34 36 32 30 30 29 30
32 33 32 32 32 32 31 33 33 31 31 33 34 34 36 37 37 39 42 45 47 49 50 52 51 51 50 46 44 44 43 47 43 36 34 36 31 33 31 29 29 30 30
30 30 31 31 30 30 29 29 30 31 32 33 33 34 36 37 39 44 48 51 54 56 55 54 52 50 50 50 47 42 42 39 37 35 34 35 30 31 31 28 29 30 30
30 29 27 27 27 30 28 27 28 32 33 33 35 36 37 40 44 48 52 56 60 58 57 56 53 47 44 47 46 42 50 37 36 32 31 34 31 32 33 27 28 29 29

GFSMA_700_spd_045.txt.gz
Wind_Speed
24 18 11 12 9 1 1 1 2 3 2 1 2 3 6 9 11 14 17 17 16 17 19 19 19 18 17 16 16 16 15 16 18 19 19 20 22 24 25 24 25 26 25
23 19 14 19 7 5 5 1 2 2 2 4 4 4 6 11 14 14 17 17 17 22 23 23 23 18 18 16 15 17 17 18 20 24 27 28 29 27 25 25 25 25 26
27 20 23 13 7 6 3 4 5 5 5 6 6 6 9 12 17 21 21 22 20 23 21 23 23 23 22 20 20 19 20 23 26 29 31 31 31 30 29 30 30 31 33
25 24 17 9 7 5 6 7 6 6 7 7 8 9 11 14 16 21 27 28 27 20 19 19 21 24 25 27 24 23 26 27 29 32 34 34 33 32 33 34 36 38 39
22 19 13 11 11 8 9 9 9 9 10 11 12 15 18 18 19 20 26 30 31 25 23 21 23 25 26 26 25 27 29 31 33 36 38 36 34 34 35 37 38 40 42
22 16 14 13 9 11 10 10 13 12 15 16 18 21 22 21 23 25 25 26 27 28 26 26 27 26 26 26 26 30 29 30 34 38 39 38 38 38 39 39 40 41 43
18 17 16 13 10 14 12 13 13 14 19 19 22 25 26 25 26 30 30 29 28 29 29 27 29 30 29 29 31 33 31 31 34 38 39 40 40 41 42 43 43 44 45
18 17 16 13 13 15 15 15 17 20 23 23 24 25 27 30 31 33 34 32 32 32 29 30 27 28 31 34 35 34 34 34 36 38 38 40 41 42 43 44 45 46 47
15 14 18 14 14 19 21 21 21 23 26 27 26 28 29 32 33 33 35 34 36 34 34 34 33 31 31 35 36 34 36 37 40 42 39 39 41 43 43 45 46 47 48
18 16 20 20 18 20 23 23 28 25 33 28 30 31 32 30 33 35 33 37 41 38 37 37 39 38 39 37 35 35 37 39 43 42 41 39 38 41 43 44 45 46 47
21 21 21 20 21 22 23 26 27 29 28 30 34 35 38 27 30 36 35 39 40 39 38 42 43 44 40 37 38 40 42 44 45 41 39 36 37 39 42 43 44 44 44
21 23 20 21 21 23 27 29 27 28 33 27 40 37 30 27 32 37 43 41 39 34 41 42 42 42 41 41 44 45 46 48 45 44 40 36 37 39 40 41 42 42 43
26 27 20 21 23 27 32 31 33 28 32 26 32 29 28 29 33 40 49 41 41 34 38 38 37 40 41 43 46 48 49 48 47 45 41 37 38 39 39 39 41 42 41
18 19 21 25 28 32 31 31 31 31 26 25 30 38 34 31 35 42 46 48 48 36 35 31 34 39 41 41 43 46 46 47 48 48 44 41 38 39 39 40 41 42 40
10 17 24 24 24 26 27 29 30 28 29 30 30 34 40 37 39 41 43 47 48 43 43 33 36 35 38 39 41 44 45 48 49 49 44 41 40 39 39 39 40 38 39
18 17 19 22 23 25 27 28 28 30 32 31 35 32 39 37 38 46 48 39 41 44 44 38 37 36 33 33 36 40 44 46 47 46 42 42 39 38 38 37 38 36 36
21 21 23 24 25 27 28 29 29 32 33 40 41 39 46 40 44 42 41 42 44 38 42 41 38 36 36 34 35 38 39 42 43 41 41 42 42 36 35 38 36 35 35
21 22 25 28 30 30 30 31 32 35 39 33 40 46 35 38 42 41 42 42 41 37 40 42 40 38 37 36 37 37 39 42 43 44 44 45 44 39 36 38 36 34 33
22 25 27 30 32 33 34 33 33 37 37 38 37 36 35 37 45 46 43 41 37 37 37 41 42 41 39 39 41 43 44 46 45 48 49 49 47 43 40 40 39 36 34
23 27 30 32 34 35 37 37 38 34 38 32 38 40 41 38 41 40 40 37 36 37 37 39 41 43 43 42 45 46 48 49 50 47 51 52 50 47 42 41 40 38 35
27 30 33 35 37 38 36 35 35 39 35 36 41 41 41 36 38 37 38 36 36 38 38 40 43 45 47 47 48 48 48 48 50 51 50 50 49 46 43 40 38 36 35
31 34 35 35 35 32 34 38 34 33 38 39 39 36 35 34 34 36 36 37 38 40 42 43 46 49 51 52 52 49 47 47 48 48 51 51 46 45 39 37 35 34 33
31 32 32 32 32 34 34 32 34 34 33 33 35 33 32 33 35 37 35 36 37 38 42 47 51 54 56 56 55 53 51 50 49 48 47 50 47 34 33 33 30 31 29
30 30 30 32 33 33 33 32 32 31 30 30 30 32 34 34 35 38 39 41 42 44 49 52 56 59 60 60 57 55 51 53 49 47 44 38 32 32 32 31 30 29 29
28 29 30 31 32 32 31 29 28 29 27 29 31 32 33 34 36 38 42 47 51 52 55 57 58 57 56 54 52 50 50 48 47 43 39 37 30 29 30 27 27 29 29
29 30 31 33 32 30 28 29 28 28 29 30 30 30 31 34 37 40 45 50 54 55 56 53 50 50 50 47 43 43 42 44 40 38 37 36 33 28 26 22 26 27 27